Weather History for Hulett, WY

Change the Weather History Date:

Saturday, September 14, 2013

  Actual Average (KEFC) Record (KEFC)
Temperature  
Mean Temperature 63 °F -  
Max Temperature 66 °F 74 °F 100 °F (1948)
Min Temperature 59 °F 43 °F 25 °F (1993)
Degree Days  
Heating Degree Days 2    
Growing Degree Days 13 (Base 50)    
Moisture  
Dew Point 59 °F    
Average Humidity 90    
Maximum Humidity 100    
Minimum Humidity 78    
Precipitation  
Precipitation 0.00 in - - ()
Sea Level Pressure  
Sea Level Pressure 29.96 in    
Wind  
Wind Speed 9 mph (WNW)    
Max Wind Speed 14 mph    
Max Gust Speed 17 mph    
Visibility 9 miles    
Events Rain    
Averages and records for this station are not official NWS values.
T = Trace of Precipitation, MM = Missing Value Source: NWS Daily Summary

Daily Weather History Graph

Daily Weather History Graph

Search for Another Location

Airport:

Trip Planner

Search our weather history database for the weather conditions in past years. The results will help you decide how hot, cold, wet, or windy it might be!

Date:

Astronomy

Sep. 14, 2013 Rise Set
Actual Time 6:36 AM MDT 7:10 PM MDT
Civil Twilight 6:06 AM MDT 7:39 PM MDT
Nautical Twilight 5:32 AM MDT 8:14 PM MDT
Astronomical Twilight 4:56 AM MDT 8:50 PM MDT
Moon 4:02 PM MDT (9/14) 1:00 AM MDT (9/14)
Length of Visible Light 13h 32m
Length of Day
12h 33m
Waxing Gibbous, 73% of the Moon is Illuminated
Sep 14
Waxing Gibbous
Sep 19
Full
Sep 26
Last Quarter
Oct 4
New
Oct 11
First Quarter

Hourly Weather History & Observations

Time (MDT) Temp. Dew Point Humidity Pressure Visibility Wind Dir Wind Speed Gust Speed Precip Events Conditions
12:15 AM 60.8 °F 57.2 °F 88% 29.90 in 10.0 mi SSW 12.7 mph 17.3 mph N/A   Overcast
12:35 AM 60.8 °F 57.2 °F 88% 29.90 in 10.0 mi SSW 12.7 mph - N/A   Overcast
12:55 AM 60.8 °F 57.2 °F 88% 29.90 in 10.0 mi South 9.2 mph 16.1 mph N/A   Overcast
1:15 AM 60.8 °F 55.4 °F 82% 29.89 in 10.0 mi SSW 12.7 mph - N/A   Overcast
1:35 AM 60.8 °F 57.2 °F 88% 29.88 in 10.0 mi SSW 13.8 mph - N/A   Overcast
1:55 AM 60.8 °F 57.2 °F 88% 29.88 in 10.0 mi SSW 13.8 mph - N/A   Overcast
2:15 AM 60.8 °F 57.2 °F 88% 29.88 in 10.0 mi SSW 10.4 mph - N/A   Overcast
2:35 AM 60.8 °F 57.2 °F 88% 29.87 in 10.0 mi SSW 11.5 mph - N/A   Overcast
2:55 AM 60.8 °F 57.2 °F 88% 29.87 in 10.0 mi SW 11.5 mph - N/A   Overcast
3:15 AM 60.8 °F 57.2 °F 88% 29.87 in 10.0 mi SW 10.4 mph - N/A   Overcast
3:35 AM 60.8 °F 57.2 °F 88% 29.87 in 10.0 mi SSW 9.2 mph - N/A   Overcast
3:55 AM 60.8 °F 57.2 °F 88% 29.86 in 10.0 mi SSW 10.4 mph - N/A   Overcast
4:15 AM 60.8 °F 57.2 °F 88% 29.86 in 10.0 mi SSW 9.2 mph - N/A   Overcast
4:35 AM 60.8 °F 57.2 °F 88% 29.87 in 10.0 mi SSW 5.8 mph - N/A   Overcast
4:55 AM 60.8 °F 57.2 °F 88% 29.87 in 10.0 mi SSW 11.5 mph - N/A   Overcast
5:15 AM 60.8 °F 57.2 °F 88% 29.87 in 10.0 mi North - - N/A   Overcast
5:35 AM 60.8 °F 57.2 °F 88% 29.87 in 10.0 mi SW 6.9 mph - N/A   Overcast
5:55 AM 60.8 °F 57.2 °F 88% 29.87 in 10.0 mi SW 10.4 mph - N/A   Overcast
6:15 AM 60.8 °F 57.2 °F 88% 29.87 in 10.0 mi WSW 6.9 mph - N/A   Overcast
6:35 AM 60.8 °F 57.2 °F 88% 29.88 in 10.0 mi WSW 3.5 mph - N/A   Overcast
6:55 AM 60.8 °F 57.2 °F 88% 29.88 in 10.0 mi WSW 6.9 mph - N/A   Overcast
7:15 AM 60.8 °F 57.2 °F 88% 29.88 in 10.0 mi West 6.9 mph - N/A   Overcast
7:35 AM 60.8 °F 57.2 °F 88% 29.89 in 10.0 mi WSW 6.9 mph - N/A   Overcast
7:55 AM 60.8 °F 57.2 °F 88% 29.90 in 10.0 mi WSW 6.9 mph - N/A   Overcast
8:15 AM 60.8 °F 59.0 °F 94% 29.90 in 7.0 mi WSW 9.2 mph - N/A   Overcast
8:35 AM 60.8 °F 59.0 °F 94% 29.90 in 1.8 mi WSW 9.2 mph - N/A   Overcast
8:55 AM 60.8 °F 59.0 °F 94% 29.90 in 1.2 mi WSW 8.1 mph - N/A   Overcast
9:15 AM 60.8 °F 59.0 °F 94% 29.91 in 5.0 mi West 8.1 mph - N/A   Overcast
9:35 AM 60.8 °F 59.0 °F 94% 29.91 in 4.0 mi WSW 9.2 mph - N/A   Overcast
9:55 AM 60.8 °F 57.2 °F 88% 29.92 in 7.0 mi West 10.4 mph - N/A   Overcast
10:15 AM 60.8 °F 57.2 °F 88% 29.92 in 10.0 mi West 9.2 mph - N/A   Overcast
10:35 AM 60.8 °F 57.2 °F 88% 29.93 in 7.0 mi West 11.5 mph - N/A   Overcast
10:55 AM 60.8 °F 59.0 °F 94% 29.93 in 4.0 mi WSW 5.8 mph - N/A   Overcast
11:15 AM 60.8 °F 59.0 °F 94% 29.94 in 5.0 mi WSW 5.8 mph - N/A   Overcast
11:35 AM 60.8 °F 59.0 °F 94% 29.93 in 10.0 mi West 8.1 mph - N/A   Overcast
11:55 AM 62.6 °F 59.0 °F 88% 29.94 in 4.0 mi West 6.9 mph - N/A   Overcast
12:15 PM 64.4 °F 59.0 °F 83% 29.94 in 10.0 mi North - - N/A   Overcast
12:35 PM 64.4 °F 59.0 °F 83% 29.94 in 10.0 mi North - - N/A   Overcast
12:55 PM 66.2 °F 59.0 °F 78% 29.94 in 10.0 mi NNW 9.2 mph - N/A   Overcast
1:15 PM 64.4 °F 59.0 °F 83% 29.95 in 10.0 mi North - - N/A   Overcast
1:35 PM 64.4 °F 59.0 °F 83% 29.95 in 10.0 mi NNW 9.2 mph - N/A   Overcast
1:55 PM 62.6 °F 59.0 °F 88% 29.96 in 5.0 mi North 9.2 mph - N/A Rain Light Rain
2:15 PM 62.6 °F 60.8 °F 94% 29.96 in 2.5 mi Calm Calm - N/A Rain Light Rain
2:35 PM 62.6 °F 59.0 °F 88% 29.97 in 7.0 mi North 3.5 mph - N/A Rain Light Rain
2:55 PM 62.6 °F 60.8 °F 94% 29.98 in 7.0 mi NNW 3.5 mph - N/A Rain Rain
3:15 PM 62.6 °F 59.0 °F 88% 29.98 in 10.0 mi North 4.6 mph - N/A   Overcast
3:35 PM 62.6 °F 60.8 °F 94% 29.98 in 10.0 mi North 3.5 mph - N/A Rain Light Rain
3:55 PM 62.6 °F 59.0 °F 88% 29.97 in 10.0 mi Calm Calm - N/A   Overcast
4:15 PM 62.6 °F 60.8 °F 94% 29.98 in 10.0 mi North 5.8 mph - N/A Rain Light Rain
4:35 PM 62.6 °F 60.8 °F 94% 29.99 in 10.0 mi NNW 8.1 mph - N/A   Overcast
4:55 PM 62.6 °F 60.8 °F 94% 30.00 in 10.0 mi North 6.9 mph - N/A   Overcast
5:15 PM 62.6 °F 59.0 °F 88% 30.01 in 10.0 mi North 4.6 mph - N/A   Overcast
5:35 PM 62.6 °F 60.8 °F 94% 30.02 in 10.0 mi North 4.6 mph - N/A   Overcast
5:55 PM 62.6 °F 59.0 °F 88% 30.02 in 10.0 mi North 6.9 mph - N/A   Overcast
6:15 PM 62.6 °F 59.0 °F 88% 30.03 in 10.0 mi North 8.1 mph - N/A   Overcast
6:35 PM 62.6 °F 59.0 °F 88% 30.03 in 10.0 mi NNE 4.6 mph - N/A   Overcast
6:55 PM 62.6 °F 59.0 °F 88% 30.03 in 10.0 mi North 3.5 mph - N/A Rain Light Rain
7:15 PM 62.6 °F 60.8 °F 94% 30.03 in 10.0 mi North 4.6 mph - N/A   Overcast
7:35 PM 62.6 °F 60.8 °F 94% 30.04 in 10.0 mi North 4.6 mph - N/A   Overcast
7:55 PM 62.6 °F 60.8 °F 94% 30.05 in 10.0 mi North 3.5 mph - N/A   Overcast
8:15 PM 62.6 °F 60.8 °F 94% 30.06 in 10.0 mi North 4.6 mph - N/A   Overcast
8:35 PM 62.6 °F 60.8 °F 94% 30.07 in 10.0 mi North 5.8 mph - N/A   Overcast
8:55 PM 62.6 °F 60.8 °F 94% 30.08 in 10.0 mi North 4.6 mph - N/A   Overcast
9:15 PM 62.6 °F 60.8 °F 94% 30.08 in 10.0 mi North 4.6 mph - N/A   Overcast
9:35 PM 60.8 °F 60.8 °F 100% 30.09 in 10.0 mi NNE 4.6 mph - N/A   Overcast
9:55 PM 62.6 °F 60.8 °F 94% 30.09 in 10.0 mi NNE 6.9 mph - N/A   Overcast
10:15 PM 62.6 °F 60.8 °F 94% 30.09 in 10.0 mi NNE 4.6 mph - N/A   Overcast
10:35 PM 60.8 °F 59.0 °F 94% 30.10 in 10.0 mi North - - N/A   Overcast
10:55 PM 60.8 °F 59.0 °F 94% 30.11 in 10.0 mi North - - N/A   Mostly Cloudy
11:15 PM 60.8 °F 59.0 °F 94% 30.11 in 10.0 mi NNE 8.1 mph - N/A   Mostly Cloudy
11:35 PM 60.8 °F 59.0 °F 94% 30.12 in 10.0 mi North - - N/A   Mostly Cloudy
11:55 PM 59.0 °F 57.2 °F 94% 30.12 in 10.0 mi NNE 6.9 mph - N/A   Mostly Cloudy